QTR1179 OEMA-OTHH

Flight info

Callsign QTR1179
Flight time 1h 39m
Altitude 37000
Route MIXUG Q46 GAS L604 KFA M691 LADNA N318 HAYYA
Aircraft A310/H-SDFGHIM1RTUWXY/LB1

Departure

Time 2026-05-07 13:06
Airport Prince Mohammad Bin Abdulaziz Airport (OEMA)

Arrival

Time 2026-05-07 14:46
Airport Hamad International Airport (OTHH)
Time Latitude Longitude Altitude Speed Heading
2026-05-07 12:36 24.55677 39.71240 2153 ft 0 kts 79°
2026-05-07 12:55 24.55675 39.71231 2153 ft 2 kts 79°
2026-05-07 12:56 24.55673 39.71220 2152 ft 0 kts 79°
2026-05-07 12:56 24.55670 39.71204 2152 ft 2 kts 67°
2026-05-07 12:56 24.55663 39.71189 2151 ft 2 kts 55°
2026-05-07 12:56 24.55652 39.71176 2151 ft 2 kts 42°
2026-05-07 12:57 24.55640 39.71166 2150 ft 2 kts 30°
2026-05-07 12:57 24.55626 39.71159 2149 ft 2 kts 18°
2026-05-07 12:57 24.55611 39.71155 2149 ft 2 kts
2026-05-07 12:57 24.55596 39.71155 2148 ft 2 kts 353°
2026-05-07 12:58 24.55588 39.71157 2148 ft 1 kts 347°
2026-05-07 12:58 24.55586 39.71158 2148 ft 0 kts 347°
2026-05-07 13:01 24.55590 39.71156 2148 ft 10 kts 347°
2026-05-07 13:02 24.55733 39.71122 2152 ft 21 kts 350°
2026-05-07 13:02 24.55875 39.71095 2155 ft 20 kts 348°
2026-05-07 13:02 24.56027 39.71064 2154 ft 23 kts 350°
2026-05-07 13:02 24.56191 39.71023 2153 ft 25 kts 347°
2026-05-07 13:03 24.56367 39.70988 2153 ft 24 kts 352°
2026-05-07 13:03 24.56442 39.70898 2152 ft 20 kts 257°
2026-05-07 13:03 24.56409 39.70796 2150 ft 10 kts 209°
2026-05-07 13:03 24.56329 39.70801 2149 ft 13 kts 181°
2026-05-07 13:04 24.56218 39.70721 2146 ft 23 kts 201°
2026-05-07 13:04 24.56118 39.70645 2143 ft 13 kts 290°
2026-05-07 13:04 24.56197 39.70566 2142 ft 16 kts 319°
2026-05-07 13:04 24.56292 39.70482 2141 ft 18 kts 321°
2026-05-07 13:05 24.56328 39.70405 2140 ft 8 kts 243°
2026-05-07 13:05 24.56261 39.70387 2139 ft 16 kts 182°
2026-05-07 13:05 24.55898 39.70359 2133 ft 85 kts 185°
2026-05-07 13:05 24.55072 39.70301 2113 ft 145 kts 184°
2026-05-07 13:06 24.53887 39.70213 2142 ft 185 kts 187°
2026-05-07 13:06 24.52559 39.70114 2551 ft 196 kts 188°
2026-05-07 13:06 24.51197 39.69992 3255 ft 194 kts 186°
2026-05-07 13:06 24.49868 39.69932 3943 ft 192 kts 185°
2026-05-07 13:07 24.48519 39.69894 4516 ft 193 kts 184°
2026-05-07 13:07 24.47167 39.69888 5084 ft 187 kts 184°
2026-05-07 13:07 24.45858 39.69891 5500 ft 196 kts 184°
2026-05-07 13:07 24.44412 39.69886 5905 ft 215 kts 184°
2026-05-07 13:08 24.42833 39.69884 6260 ft 238 kts 184°
2026-05-07 13:08 24.41085 39.69869 6589 ft 246 kts 184°
2026-05-07 13:08 24.39319 39.69847 6930 ft 248 kts 184°
2026-05-07 13:08 24.37598 39.69829 7255 ft 248 kts 179°
2026-05-07 13:09 24.35977 39.70516 7620 ft 262 kts 139°
2026-05-07 13:09 24.35000 39.72305 8120 ft 288 kts 105°
2026-05-07 13:09 24.34924 39.74560 8664 ft 305 kts 87°
2026-05-07 13:09 24.35129 39.76868 9436 ft 309 kts 86°
2026-05-07 13:10 24.35354 39.79264 9875 ft 328 kts 85°
2026-05-07 13:10 24.35627 39.81851 10137 ft 352 kts 85°
2026-05-07 13:10 24.35941 39.84570 10396 ft 369 kts 84°
2026-05-07 13:10 24.36283 39.87357 10629 ft 370 kts 84°
2026-05-07 13:11 24.36630 39.90153 10857 ft 372 kts 84°
2026-05-07 13:11 24.36982 39.92945 11086 ft 372 kts 84°
2026-05-07 13:11 24.37343 39.95773 11331 ft 372 kts 84°
2026-05-07 13:11 24.37721 39.98596 11629 ft 379 kts 84°
2026-05-07 13:12 24.38116 40.01450 12483 ft 381 kts 84°
2026-05-07 13:12 24.38514 40.04312 13330 ft 383 kts 84°
2026-05-07 13:12 24.38915 40.07172 14081 ft 386 kts 84°
2026-05-07 13:12 24.39327 40.10120 14811 ft 389 kts 84°
2026-05-07 13:13 24.39732 40.13057 15464 ft 395 kts 84°
2026-05-07 13:13 24.40147 40.16045 16188 ft 398 kts 84°
2026-05-07 13:13 24.40564 40.19032 16885 ft 401 kts 84°
2026-05-07 13:13 24.40991 40.22080 17588 ft 404 kts 84°
2026-05-07 13:14 24.41412 40.25119 18118 ft 409 kts 84°
2026-05-07 13:14 24.41833 40.28226 18667 ft 415 kts 84°
2026-05-07 13:14 24.42269 40.31388 19289 ft 417 kts 84°
2026-05-07 13:14 24.42707 40.34553 19822 ft 423 kts 84°
2026-05-07 13:15 24.43148 40.37759 20328 ft 428 kts 84°
2026-05-07 13:15 24.43594 40.40985 20895 ft 431 kts 84°
2026-05-07 13:15 24.44040 40.44237 21346 ft 436 kts 84°
2026-05-07 13:15 24.44494 40.47529 21875 ft 439 kts 84°
2026-05-07 13:16 24.44948 40.50834 22364 ft 442 kts 83°
2026-05-07 13:16 24.45416 40.54218 22767 ft 447 kts 84°
2026-05-07 13:16 24.46022 40.57568 23199 ft 453 kts 77°
2026-05-07 13:16 24.47058 40.60857 23668 ft 459 kts 69°
2026-05-07 13:17 24.48433 40.64078 24136 ft 464 kts 63°
2026-05-07 13:17 24.49991 40.67176 24518 ft 468 kts 61°
2026-05-07 13:17 24.51659 40.70248 24911 ft 472 kts 59°
2026-05-07 13:17 24.53392 40.73305 25277 ft 475 kts 59°
2026-05-07 13:18 24.55192 40.76408 25619 ft 480 kts 58°
2026-05-07 13:18 24.56991 40.79473 26105 ft 480 kts 58°
2026-05-07 13:18 24.58802 40.82532 26529 ft 481 kts 58°
2026-05-07 13:18 24.60627 40.85601 26953 ft 481 kts 58°
2026-05-07 13:19 24.62445 40.88663 27429 ft 480 kts 58°
2026-05-07 13:19 24.64336 40.91842 27847 ft 482 kts 58°
2026-05-07 13:19 24.66242 40.95046 28142 ft 484 kts 58°
2026-05-07 13:19 24.68138 40.98234 28431 ft 490 kts 58°
2026-05-07 13:20 24.70032 41.01410 28718 ft 494 kts 58°
2026-05-07 13:20 24.71921 41.04575 29001 ft 498 kts 58°
2026-05-07 13:20 24.73814 41.07764 29283 ft 501 kts 58°
2026-05-07 13:20 24.75726 41.10976 29569 ft 505 kts 58°
2026-05-07 13:21 24.77642 41.14201 29855 ft 506 kts 58°
2026-05-07 13:21 24.79592 41.17485 30146 ft 507 kts 58°
2026-05-07 13:21 24.81516 41.20729 30428 ft 508 kts 58°
2026-05-07 13:21 24.83450 41.23990 30713 ft 509 kts 58°
2026-05-07 13:22 24.85547 41.27534 31023 ft 510 kts 58°
2026-05-07 13:22 24.87629 41.31056 31322 ft 511 kts 58°
2026-05-07 13:22 24.89735 41.34609 31641 ft 513 kts 58°
2026-05-07 13:22 24.91843 41.38189 31949 ft 515 kts 58°
2026-05-07 13:23 24.93965 41.41781 32265 ft 516 kts 58°
2026-05-07 13:23 24.96091 41.45385 32590 ft 518 kts 58°
2026-05-07 13:23 24.98250 41.49045 32902 ft 519 kts 58°
2026-05-07 13:23 25.00372 41.52632 33221 ft 520 kts 58°
2026-05-07 13:24 25.02505 41.56273 33551 ft 521 kts 58°
2026-05-07 13:24 25.04653 41.59918 33873 ft 521 kts 58°
2026-05-07 13:24 25.06782 41.63540 34199 ft 520 kts 58°
2026-05-07 13:24 25.08918 41.67185 34522 ft 518 kts 59°
2026-05-07 13:25 25.11005 41.70726 34814 ft 517 kts 59°
2026-05-07 13:25 25.13102 41.74314 35089 ft 515 kts 59°
2026-05-07 13:25 25.15216 41.77936 35381 ft 513 kts 59°
2026-05-07 13:25 25.17316 41.81524 35663 ft 513 kts 60°
2026-05-07 13:26 25.19421 41.85122 35956 ft 512 kts 60°
2026-05-07 13:26 25.21517 41.88704 36250 ft 511 kts 60°
2026-05-07 13:26 25.23539 41.92176 36538 ft 510 kts 60°
2026-05-07 13:26 25.25595 41.95699 36828 ft 508 kts 59°
2026-05-07 13:27 25.27665 41.99247 36971 ft 511 kts 59°
2026-05-07 13:27 25.29772 42.02867 36986 ft 516 kts 59°
2026-05-07 13:27 25.33949 42.10030 36991 ft 527 kts 60°
2026-05-07 13:28 25.38191 42.17336 36995 ft 538 kts 59°
2026-05-07 13:28 25.42511 42.24779 36996 ft 548 kts 59°
2026-05-07 13:29 25.46869 42.32270 36998 ft 556 kts 59°
2026-05-07 13:29 25.51276 42.39867 37011 ft 551 kts 59°
2026-05-07 13:30 25.55561 42.47311 37014 ft 551 kts 59°
2026-05-07 13:30 25.59901 42.54811 37022 ft 550 kts 59°
2026-05-07 13:31 25.64201 42.62249 37023 ft 550 kts 59°
2026-05-07 13:31 25.68570 42.69843 37010 ft 550 kts 59°
2026-05-07 13:32 25.72904 42.77401 37000 ft 549 kts 59°
2026-05-07 13:32 25.77303 42.85046 36994 ft 548 kts 59°
2026-05-07 13:33 25.81542 42.92452 37004 ft 549 kts 60°
2026-05-07 13:33 25.85834 42.99967 37006 ft 550 kts 60°
2026-05-07 13:34 25.92173 43.11087 37005 ft 551 kts 59°
2026-05-07 13:35 25.96390 43.18483 37000 ft 551 kts 59°
2026-05-07 13:35 26.00633 43.25929 36993 ft 549 kts 59°
2026-05-07 13:36 26.04807 43.33283 36993 ft 550 kts 59°
2026-05-07 13:36 26.09024 43.40721 37001 ft 551 kts 59°
2026-05-07 13:37 26.13278 43.48248 36982 ft 550 kts 59°
2026-05-07 13:37 26.17540 43.55786 36970 ft 550 kts 59°
2026-05-07 13:38 26.21810 43.63358 36968 ft 551 kts 58°
2026-05-07 13:38 26.26064 43.70988 36934 ft 549 kts 64°
2026-05-07 13:38 26.27665 43.74946 36946 ft 546 kts 75°
2026-05-07 13:39 26.28740 43.79092 36942 ft 540 kts 83°
2026-05-07 13:39 26.29784 43.87500 36945 ft 535 kts 91°
2026-05-07 13:40 26.30211 43.95837 36955 ft 531 kts 94°
2026-05-07 13:40 26.30425 44.04125 36965 ft 532 kts 95°
2026-05-07 13:41 26.30530 44.12362 36969 ft 532 kts 95°
2026-05-07 13:41 26.30614 44.20603 36979 ft 529 kts 96°
2026-05-07 13:42 26.30694 44.28893 36977 ft 526 kts 95°
2026-05-07 13:42 26.30735 44.37147 36994 ft 525 kts 96°
2026-05-07 13:43 26.30784 44.45278 36976 ft 527 kts 95°
2026-05-07 13:43 26.30816 44.53442 36986 ft 524 kts 95°
2026-05-07 13:44 26.30845 44.61630 36990 ft 523 kts 96°
2026-05-07 13:44 26.30873 44.69745 36979 ft 522 kts 96°
2026-05-07 13:45 26.30901 44.78023 36984 ft 525 kts 96°
2026-05-07 13:45 26.30911 44.86136 37002 ft 528 kts 96°
2026-05-07 13:46 26.30927 44.94336 36999 ft 529 kts 96°
2026-05-07 13:46 26.30945 45.02432 37012 ft 524 kts 96°
2026-05-07 13:47 26.30943 45.10691 37006 ft 526 kts 95°
2026-05-07 13:47 26.30954 45.19017 36997 ft 525 kts 96°
2026-05-07 13:48 26.30930 45.27323 37022 ft 530 kts 96°
2026-05-07 13:48 26.30927 45.35650 37005 ft 524 kts 96°
2026-05-07 13:49 26.30924 45.43802 37007 ft 523 kts 97°
2026-05-07 13:49 26.30876 45.51963 37006 ft 529 kts 96°
2026-05-07 13:50 26.30855 45.60162 37007 ft 525 kts 95°
2026-05-07 13:50 26.30833 45.68387 36991 ft 528 kts 96°
2026-05-07 13:51 26.30806 45.76503 36991 ft 522 kts 97°
2026-05-07 13:51 26.30757 45.84645 36986 ft 526 kts 96°
2026-05-07 13:52 26.30708 45.92791 36976 ft 525 kts 96°
2026-05-07 13:52 26.30661 46.00971 36980 ft 528 kts 96°
2026-05-07 13:53 26.30625 46.09091 36977 ft 523 kts 96°
2026-05-07 13:53 26.30560 46.17159 36978 ft 524 kts 96°
2026-05-07 13:54 26.30494 46.25332 36979 ft 526 kts 96°
2026-05-07 13:54 26.30432 46.33484 36979 ft 526 kts 96°
2026-05-07 13:55 26.30366 46.41608 36979 ft 526 kts 96°
2026-05-07 13:55 26.30292 46.49727 36976 ft 525 kts 96°
2026-05-07 13:56 26.30211 46.57847 36979 ft 525 kts 96°
2026-05-07 13:56 26.30120 46.66034 36973 ft 528 kts 96°
2026-05-07 13:57 26.30034 46.74118 36967 ft 525 kts 96°
2026-05-07 13:57 26.29942 46.82270 36966 ft 525 kts 96°
2026-05-07 13:58 26.29847 46.90396 36968 ft 526 kts 96°
2026-05-07 13:58 26.29745 46.98514 36968 ft 526 kts 96°
2026-05-07 13:59 26.29630 47.06667 36963 ft 524 kts 96°
2026-05-07 13:59 26.29519 47.14805 36961 ft 526 kts 96°
2026-05-07 14:00 26.29397 47.22918 36958 ft 525 kts 96°
2026-05-07 14:00 26.29254 47.31089 36956 ft 526 kts 96°
2026-05-07 14:01 26.29113 47.39195 36953 ft 525 kts 96°
2026-05-07 14:01 26.28965 47.47351 36949 ft 524 kts 96°
2026-05-07 14:02 26.28817 47.55434 36950 ft 523 kts 96°
2026-05-07 14:02 26.28747 47.63569 36940 ft 527 kts 91°
2026-05-07 14:03 26.29490 47.71738 36926 ft 528 kts 85°
2026-05-07 14:03 26.30792 47.79821 36920 ft 530 kts 81°
2026-05-07 14:04 26.32305 47.87876 36916 ft 530 kts 81°
2026-05-07 14:04 26.33878 47.95859 36909 ft 530 kts 80°
2026-05-07 14:05 26.35490 48.03903 36900 ft 530 kts 80°
2026-05-07 14:05 26.37103 48.11931 36891 ft 531 kts 80°
2026-05-07 14:06 26.38730 48.19985 36892 ft 531 kts 79°
2026-05-07 14:06 26.40350 48.28022 36890 ft 531 kts 79°
2026-05-07 14:07 26.41960 48.36036 36894 ft 532 kts 80°
2026-05-07 14:07 26.43576 48.44088 36894 ft 531 kts 79°
2026-05-07 14:08 26.45173 48.52109 36890 ft 532 kts 79°
2026-05-07 14:08 26.46722 48.60171 36887 ft 529 kts 82°
2026-05-07 14:09 26.47673 48.68294 36872 ft 527 kts 89°
2026-05-07 14:09 26.48151 48.76440 36867 ft 526 kts 91°
2026-05-07 14:10 26.48453 48.84602 36863 ft 525 kts 92°
2026-05-07 14:10 26.48684 48.92743 36862 ft 525 kts 92°
2026-05-07 14:11 26.48877 49.00871 36856 ft 523 kts 92°
2026-05-07 14:11 26.49057 49.08958 36855 ft 523 kts 92°
2026-05-07 14:12 26.49228 49.17112 36850 ft 524 kts 92°
2026-05-07 14:12 26.49391 49.25242 36844 ft 523 kts 92°
2026-05-07 14:13 26.49549 49.33332 36838 ft 524 kts 92°
2026-05-07 14:13 26.49702 49.41453 36838 ft 524 kts 92°
2026-05-07 14:14 26.49849 49.49556 36835 ft 523 kts 92°
2026-05-07 14:14 26.49995 49.57692 36833 ft 524 kts 92°
2026-05-07 14:15 26.50135 49.65841 36831 ft 524 kts 92°
2026-05-07 14:15 26.50199 49.73962 36817 ft 522 kts 94°
2026-05-07 14:16 26.49995 49.82071 36820 ft 521 kts 96°
2026-05-07 14:16 26.49647 49.90090 36823 ft 520 kts 96°
2026-05-07 14:17 26.49240 49.98167 36822 ft 519 kts 97°
2026-05-07 14:17 26.48809 50.06180 36823 ft 519 kts 97°
2026-05-07 14:18 26.48362 50.14247 36822 ft 518 kts 97°
2026-05-07 14:18 26.47907 50.22241 36824 ft 518 kts 97°
2026-05-07 14:19 26.47431 50.30275 36822 ft 518 kts 98°
2026-05-07 14:19 26.46341 50.38193 36831 ft 514 kts 106°
2026-05-07 14:20 26.44630 50.45888 36831 ft 511 kts 110°
2026-05-07 14:20 26.42658 50.53541 36832 ft 510 kts 111°
2026-05-07 14:21 26.40602 50.61087 36832 ft 508 kts 111°
2026-05-07 14:21 26.38499 50.68617 36816 ft 509 kts 112°
2026-05-07 14:22 26.36377 50.76133 36818 ft 507 kts 112°
2026-05-07 14:22 26.34248 50.83624 36819 ft 509 kts 112°
2026-05-07 14:23 26.31939 50.91095 36815 ft 505 kts 117°
2026-05-07 14:23 26.29058 50.98179 36287 ft 502 kts 122°
2026-05-07 14:23 26.27482 51.01635 35712 ft 495 kts 123°
2026-05-07 14:24 26.25878 51.05021 35147 ft 492 kts 123°
2026-05-07 14:24 26.24246 51.08387 34591 ft 493 kts 124°
2026-05-07 14:24 26.22595 51.11753 34038 ft 495 kts 124°
2026-05-07 14:24 26.20920 51.15126 33485 ft 496 kts 124°
2026-05-07 14:25 26.19236 51.18494 32944 ft 499 kts 124°
2026-05-07 14:25 26.17543 51.21874 32443 ft 501 kts 124°
2026-05-07 14:25 26.15837 51.25266 31961 ft 501 kts 124°
2026-05-07 14:25 26.14146 51.28625 31488 ft 501 kts 123°
2026-05-07 14:26 26.12441 51.32020 31010 ft 499 kts 123°
2026-05-07 14:26 26.10551 51.35252 30499 ft 488 kts 136°
2026-05-07 14:26 26.08052 51.37741 30025 ft 464 kts 152°
2026-05-07 14:26 26.05240 51.39307 29549 ft 443 kts 168°
2026-05-07 14:27 26.02249 51.40044 29085 ft 430 kts 177°
2026-05-07 14:27 25.99255 51.40402 28599 ft 424 kts 181°
2026-05-07 14:27 25.96353 51.40583 28107 ft 412 kts 183°
2026-05-07 14:27 25.93520 51.40672 27618 ft 404 kts 184°
2026-05-07 14:28 25.90727 51.40712 27134 ft 400 kts 184°
2026-05-07 14:28 25.87962 51.40721 26657 ft 397 kts 184°
2026-05-07 14:28 25.85205 51.40715 26185 ft 397 kts 184°
2026-05-07 14:28 25.82419 51.40703 25698 ft 394 kts 184°
2026-05-07 14:29 25.79683 51.40683 25225 ft 393 kts 184°
2026-05-07 14:29 25.76954 51.40658 24743 ft 390 kts 184°
2026-05-07 14:29 25.74235 51.40635 24267 ft 388 kts 183°
2026-05-07 14:29 25.71530 51.40610 23779 ft 385 kts 182°
2026-05-07 14:30 25.68859 51.40585 23297 ft 383 kts 182°
2026-05-07 14:30 25.66204 51.40494 22800 ft 379 kts 191°
2026-05-07 14:30 25.63789 51.39482 22354 ft 371 kts 211°
2026-05-07 14:30 25.61595 51.37984 21901 ft 371 kts 214°
2026-05-07 14:31 25.59461 51.36289 21376 ft 368 kts 212°
2026-05-07 14:31 25.57088 51.35403 20882 ft 355 kts 187°
2026-05-07 14:31 25.54662 51.35195 20408 ft 342 kts 184°
2026-05-07 14:31 25.52300 51.35092 19905 ft 334 kts 182°
2026-05-07 14:32 25.49988 51.35003 19425 ft 330 kts 182°
2026-05-07 14:32 25.47656 51.35345 18919 ft 329 kts 165°
2026-05-07 14:32 25.45393 51.36084 18320 ft 329 kts 161°
2026-05-07 14:32 25.43209 51.37159 17709 ft 326 kts 153°
2026-05-07 14:33 25.41166 51.38306 17132 ft 324 kts 153°
2026-05-07 14:33 25.39170 51.39438 16562 ft 321 kts 152°
2026-05-07 14:33 25.37142 51.40581 15990 ft 318 kts 152°
2026-05-07 14:33 25.35067 51.41744 15392 ft 314 kts 152°
2026-05-07 14:34 25.33124 51.42824 14823 ft 311 kts 152°
2026-05-07 14:34 25.31150 51.43915 14250 ft 309 kts 152°
2026-05-07 14:34 25.29170 51.44999 13669 ft 304 kts 152°
2026-05-07 14:34 25.27201 51.46065 13059 ft 298 kts 152°
2026-05-07 14:35 25.25256 51.47102 12433 ft 294 kts 152°
2026-05-07 14:35 25.23376 51.48101 11822 ft 290 kts 152°
2026-05-07 14:35 25.21524 51.49074 11217 ft 288 kts 152°
2026-05-07 14:35 25.19691 51.50028 10631 ft 287 kts 152°
2026-05-07 14:36 25.17859 51.50975 10041 ft 287 kts 152°
2026-05-07 14:36 25.16020 51.51914 9460 ft 286 kts 152°
2026-05-07 14:36 25.14218 51.52833 8904 ft 285 kts 152°
2026-05-07 14:36 25.12416 51.53748 8342 ft 283 kts 152°
2026-05-07 14:37 25.10639 51.54656 7777 ft 281 kts 152°
2026-05-07 14:37 25.07087 51.56471 6634 ft 277 kts 153°
2026-05-07 14:37 25.05273 51.57408 6076 ft 274 kts 152°
2026-05-07 14:38 25.03507 51.58328 5576 ft 269 kts 152°
2026-05-07 14:38 25.01773 51.59237 5115 ft 264 kts 152°
2026-05-07 14:38 25.00086 51.60135 4819 ft 254 kts 152°
2026-05-07 14:38 24.98615 51.61327 4464 ft 239 kts 117°
2026-05-07 14:39 24.98318 51.63141 4373 ft 217 kts 80°
2026-05-07 14:39 24.98657 51.64902 4151 ft 216 kts 73°
2026-05-07 14:39 24.99083 51.66604 3895 ft 213 kts 73°
2026-05-07 14:39 24.99666 51.68216 3574 ft 206 kts 45°
2026-05-07 14:40 25.01003 51.69023 3400 ft 200 kts 17°
2026-05-07 14:40 25.02383 51.69447 3219 ft 203 kts 13°
2026-05-07 14:40 25.03877 51.69833 2991 ft 203 kts
2026-05-07 14:40 25.05334 51.69975 2839 ft 201 kts
2026-05-07 14:41 25.06856 51.70050 2655 ft 200 kts
2026-05-07 14:41 25.08331 51.70016 2740 ft 197 kts 349°
2026-05-07 14:41 25.09662 51.69571 2716 ft 198 kts 340°
2026-05-07 14:41 25.11028 51.69013 2625 ft 199 kts 339°
2026-05-07 14:42 25.12355 51.68443 2487 ft 186 kts 339°
2026-05-07 14:42 25.13654 51.67877 2264 ft 176 kts 339°
2026-05-07 14:42 25.14872 51.67345 2057 ft 170 kts 339°
2026-05-07 14:42 25.15998 51.66853 1883 ft 160 kts 339°
2026-05-07 14:43 25.17031 51.66401 1672 ft 151 kts 339°
2026-05-07 14:43 25.17987 51.65982 1478 ft 144 kts 339°
2026-05-07 14:43 25.18950 51.65560 1314 ft 134 kts 339°
2026-05-07 14:43 25.19868 51.65157 1134 ft 132 kts 340°
2026-05-07 14:44 25.20780 51.64756 985 ft 141 kts 340°
2026-05-07 14:44 25.21725 51.64344 904 ft 142 kts 340°
2026-05-07 14:44 25.22652 51.63939 654 ft 145 kts 340°
2026-05-07 14:44 25.23604 51.63528 395 ft 143 kts 340°
2026-05-07 14:45 25.24517 51.63128 214 ft 140 kts 340°
2026-05-07 14:45 25.25439 51.62723 95 ft 143 kts 340°
2026-05-07 14:45 25.26354 51.62320 13 ft 131 kts 339°
2026-05-07 14:45 25.27064 51.62009 13 ft 77 kts 338°
2026-05-07 14:46 25.27458 51.61730 13 ft 56 kts 309°
2026-05-07 14:46 25.27535 51.61537 13 ft 17 kts 244°
2026-05-07 14:46 25.27428 51.61535 13 ft 18 kts 157°
2026-05-07 14:46 25.27305 51.61591 13 ft 20 kts 158°
2026-05-07 14:47 25.27161 51.61653 13 ft 22 kts 158°
2026-05-07 14:47 25.27005 51.61724 13 ft 25 kts 158°
2026-05-07 14:47 25.26834 51.61797 13 ft 26 kts 157°
2026-05-07 14:47 25.26672 51.61869 13 ft 17 kts 164°
2026-05-07 14:48 25.26592 51.61797 13 ft 17 kts 251°
2026-05-07 14:48 25.26544 51.61655 13 ft 20 kts 248°
2026-05-07 14:48 25.26519 51.61528 13 ft 13 kts 296°
2026-05-07 14:48 25.26592 51.61461 13 ft 13 kts 308°
2026-05-07 14:49 25.26562 51.61365 13 ft 14 kts 237°
2026-05-07 14:49 25.26532 51.61292 13 ft 6 kts 249°
2026-05-07 14:49 25.26524 51.61269 13 ft 1 kts 248°